Location: Coleta Xcaret
(20.5906°N, 87.1279°W)
Time: 21:23:40
(UTC+00:00)

Daily predictions for brighter satellites

Satellite Brightness Start Highest point End
(mag) Time Altitude Azimuth Time Altitude Azimuth Time Altitude Azimuth
ATLAS 3B CENTAUR R/B 3.6 23:20:03 10° SSW 23:24:10 31° SE 23:32:21 10° E
Cosmos 1441 Rocket 3.1 23:25:46 10° N 23:29:28 68° E 23:33:08 10° SSE
CZ-4C R/B 2.1 23:25:17 10° SSW 23:29:51 72° WNW 23:34:56 10° NNE
CZ-4 R/B 3.1 23:29:37 10° E 23:31:18 13° ENE 23:32:59 10° NE
Meteor 2-4 Rocket 4.2 23:26:31 10° SSE 23:32:05 43° E 23:37:33 10° NNE
NOAA 12 4.4 23:27:19 10° SE 23:32:19 44° ENE 23:37:20 10° N
Okean O Rocket 4.2 23:28:48 10° SSW 23:32:24 26° W 23:36:01 10° NW
STARLINK 4.4 23:28:41 10° SW 23:32:33 47° NW 23:36:26 10° NNE
NOSS 2-1 (D) 4.2 23:29:32 10° S 23:33:06 29° ESE 23:36:12 10° NE
SMAP 3.1 23:28:32 10° SSE 23:33:11 84° ENE 23:37:50 10° N
Genesis I 3.2 23:30:18 10° NNW 23:34:02 52° ENE 23:37:43 10° SE
Cosmos 1515 3.9 23:30:37 10° SSE 23:34:15 48° E 23:37:54 10° NNE
Sich 1 Rocket 3.9 23:31:52 10° N 23:36:04 45° E 23:40:16 10° SSE
CZ-3C R/B 2.3 23:35:24 10° WSW 23:38:20 71° SSE 23:51:46 10° E
Cosmos 1666 4.0 23:35:59 10° NNW 23:39:31 43° W 23:43:03 10° SSW
ASC 2 Rocket 4.3 23:39:14 10° W 23:44:12 63° SSW 23:51:35 10° ESE
SWIFT 2.7 23:41:17 10° W 23:45:30 66° S 23:49:43 10° ESE
OAO 2 Rocket 4.2 23:44:17 10° NW 23:48:43 31° NNE 23:52:45 12° E
CZ-3B R/B 1.4 23:45:49 10° W 23:49:05 50° N 23:53:53 13° ENE
YAOGAN 1 3.8 23:48:04 10° ESE 23:51:09 19° ENE 23:54:14 10° NNE
Cosmos 1975 3.0 23:50:42 10° N 23:54:35 49° E 23:58:29 10° SSE
Cosmos 1378 Rocket 4.5 23:51:25 10° SSE 23:55:02 27° E 23:58:40 10° NNE
